Location: Civry
(47.2902°N, 4.6156°E)
Time: 03:15:07
(UTC+00:00)

STARLINK-1224 - Pass Details

Date: 09 April 2020
Orbit: 549 x 550 km, 53.0° (Epoch: 26 May)

Event Time Altitude Azimuth Distance (km) Brightness Sun altitude
Rises 19:03:52 0° 294° (WNW) 2,726 9.8 -7.5°
Reaches altitude 10° 19:06:11 10° 301° (WNW) 1,831 7.9 -7.9°
Maximum altitude 19:10:11 46° 15° (NNE) 752 4.4 -8.5°
Enters shadow 19:14:11 10° 89° (E) 1,821 5.7 -9.1°
